CW7731 Weather Reports


time (UTC)temp
C
wind
direction
speed
KPH
gust
KPH
rain 1hr
cm
rain 24hr
cm
rain mn
cm
humidity
%
barometer
mb
20260507200140 16 310 0.0 9.7 0.00 0.00 0.00 78 1013.1
20260507195141 16 304 0.0 0.0 0.00 0.00 0.00 77 1013.1
20260507194117 16 302 0.0 0.0 0.00 0.00 0.00 75 1012.9
20260507193102 16 304 0.0 0.0 0.00 0.00 0.00 76 1012.8
20260507192112 16 304 0.0 0.0 0.00 0.00 0.00 74 1012.6
20260507191138 16 304 0.0 0.0 0.00 0.00 0.00 73 1012.4
20260507190103 16 304 0.0 0.0 0.00 0.00 0.00 72 1012.2
20260507185119 17 302 0.0 0.0 0.00 0.00 0.00 72 1012.2
20260507184134 17 302 0.0 3.2 0.00 0.00 0.00 72 1012.0
20260507183143 17 311 1.6 11.3 0.00 0.00 0.00 71 1011.9
20260507182122 18 314 0.0 1.6 0.00 0.00 0.00 70 1011.7
20260507181115 18 319 0.0 0.0 0.00 0.00 0.00 67 1011.5
20260507180116 18 318 0.0 0.0 0.00 0.00 0.00 64 1011.3
20260507175139 18 319 0.0 0.0 0.00 0.00 0.00 62 1011.1
20260507174131 19 324 0.0 0.0 0.00 0.00 0.00 61 1010.9
20260507165114 20 337 0.0 8.0 0.00 0.00 0.00 56 1010.5
20260507164128 21 288 0.0 1.6 0.00 0.00 0.00 55 1010.6
20260507163102 21 302 0.0 1.6 0.00 0.00 0.00 54 1010.5
20260507162115 20 297 0.0 0.0 0.00 0.00 0.00 56 1010.6
20260507161136 20 297 0.0 0.0 0.00 0.00 0.00 57 1010.5
20260507160133 20 298 0.0 0.0 0.00 0.00 0.00 57 1010.5
20260507155124 20 287 0.0 0.0 0.00 0.00 0.00 57 1010.4
20260507154119 21 286 0.0 0.0 0.00 0.00 0.00 56 1010.4
20260507153122 21 295 0.0 3.2 0.00 0.00 0.00 54 1010.4
20260507152110 21 295 0.0 11.3 0.00 0.00 0.00 56 1010.5
20260507151138 21 309 0.0 8.0 0.00 0.00 0.00 55 1010.5
20260507150128 21 310 0.0 12.9 0.00 0.00 0.00 49 1010.4
20260507145105 21 265 0.0 14.5 0.00 0.00 0.00 50 1010.4
20260507144142 21 312 0.0 1.6 0.00 0.00 0.00 50 1010.4
20260507143137 20 11 0.0 14.5 0.00 0.00 0.00 52 1010.4
20260507142107 21 3 3.2 12.9 0.00 0.00 0.00 51 1010.5
20260507141121 21 30 3.2 11.3 0.00 0.00 0.00 51 1010.6
20260507140122 20 2 0.0 9.7 0.00 0.00 0.00 52 1010.6
20260507135126 20 50 0.0 11.3 0.00 0.00 0.00 51 1010.5
20260507134138 20 15 1.6 12.9 0.00 0.00 0.00 53 1010.7
20260507133102 20 32 1.6 9.7 0.00 0.00 0.00 55 1010.8
20260507132109 20 81 0.0 17.7 0.00 0.00 0.00 60 1010.8
20260507131138 20 26 0.0 29.0 0.00 0.00 0.00 64 1010.8
20260507130131 21 15 12.9 24.1 0.00 0.00 0.00 60 1010.6
20260507125108 21 9 0.0 12.9 0.00 0.03 0.00 59 1010.5
20260507124110 22 289 4.8 17.7 0.00 0.05 0.00 55 1010.4
20260507123146 22 209 3.2 25.7 0.00 0.08 0.00 50 1010.3
20260507122134 22 203 4.8 20.9 0.00 0.08 0.00 50 1010.3
20260507121140 21 206 3.2 22.5 0.00 0.08 0.00 53 1010.4
20260507120141 21 216 1.6 20.9 0.00 0.10 0.00 53 1010.3
20260507115143 21 203 6.4 24.1 0.00 0.15 0.00 52 1010.3
20260507114123 21 189 6.4 19.3 0.00 0.20 0.00 54 1010.4
20260507105101 20 192 0.0 17.7 0.00 0.25 0.00 62 1010.8
20260507104120 20 172 1.6 16.1 0.00 0.30 0.00 63 1010.8
20260507103141 20 125 1.6 19.3 0.00 0.30 0.00 64 1011.1
20260507102136 20 165 1.6 8.0 0.00 0.30 0.00 62 1011.1
20260507101145 20 167 0.0 9.7 0.00 0.30 0.00 60 1011.2
20260507100104 20 176 0.0 6.4 0.00 0.30 0.00 61 1011.3
20260507095130 20 187 0.0 1.6 0.00 0.30 0.00 59 1011.4
20260507094108 19 187 0.0 0.0 0.00 0.30 0.00 61 1011.3
20260507093122 19 185 0.0 1.6 0.00 0.30 0.00 62 1011.3
20260507092137 19 175 0.0 1.6 0.00 0.30 0.00 63 1011.2
20260507091129 18 167 0.0 1.6 0.00 0.30 0.00 65 1011.2
20260507085135 18 165 0.0 6.4 0.00 0.30 0.00 66 1011.2
20260507084133 17 167 0.0 3.2 0.00 0.30 0.00 67 1011.2
20260507081112 17 319 0.0 0.0 0.00 0.30 0.00 72 1011.3
20260507080146 17 320 0.0 0.0 0.00 0.30 0.00 73 1011.2
20260507075125 17 320 0.0 0.0 0.00 0.30 0.00 76 1011.2
20260507074123 16 319 0.0 0.0 0.00 0.30 0.00 78 1011.2
20260507073144 16 319 0.0 0.0 0.00 0.30 0.00 80 1011.2
20260507072130 16 319 0.0 0.0 0.00 0.30 0.00 80 1011.2
20260507071138 16 319 0.0 0.0 0.00 0.30 0.00 80 1011.1
20260507070130 16 319 0.0 0.0 0.00 0.30 0.00 81 1011.0
20260507065124 15 319 0.0 0.0 0.00 0.30 0.00 83 1010.9
20260507064117 15 319 0.0 0.0 0.00 0.30 0.00 84 1010.9
20260507063129 15 319 0.0 0.0 0.00 0.30 0.00 84 1010.9
20260507061146 14 319 0.0 0.0 0.00 0.33 0.00 86 1010.8
20260507060105 13 319 0.0 0.0 0.00 0.36 0.00 86 1010.8
20260507055145 13 319 0.0 0.0 0.00 0.51 0.00 87 1010.7
20260507054124 13 319 0.0 0.0 0.00 0.51 0.00 88 1010.7
20260507053129 12 319 0.0 0.0 0.00 0.51 0.00 89 1010.6
20260507052116 12 319 0.0 0.0 0.00 0.51 0.00 90 1010.6
20260507051133 12 319 0.0 0.0 0.00 0.51 0.00 90 1010.4
20260507050135 11 319 0.0 1.6 0.00 0.51 0.00 90 1010.3
20260507043132 11 316 0.0 0.0 0.00 0.51 0.00 90 1010.0
20260507042123 11 316 0.0 0.0 0.00 0.51 0.00 90 1010.0
20260507041144 11 316 0.0 0.0 0.00 0.51 0.00 90 1009.8
20260507040142 11 313 0.0 1.6 0.00 0.51 0.00 90 1009.7
20260507035103 11 315 0.0 0.0 0.00 0.51 0.00 91 1009.5
20260507034143 11 315 0.0 0.0 0.00 0.51 0.00 91 1009.6
20260507033140 11 316 0.0 0.0 0.00 0.51 0.00 91 1009.6
20260507032112 11 317 0.0 1.6 0.00 0.51 0.00 91 1009.6
20260507031137 11 317 0.0 1.6 0.00 0.51 0.00 91 1009.6
20260507030104 11 318 0.0 3.2 0.00 0.51 0.00 91 1009.5
20260507023103 11 349 0.0 1.6 0.00 0.51 0.00 91 1009.5
20260507022136 11 355 0.0 0.0 0.00 0.51 0.00 92 1009.5
20260507021135 11 355 0.0 0.0 0.00 0.51 0.00 92 1009.6
20260507020146 11 355 0.0 1.6 0.00 0.51 0.00 92 1009.7
20260507015142 11 3 0.0 0.0 0.00 0.51 0.00 92 1009.7
20260507014133 11 3 0.0 1.6 0.00 0.51 0.00 92 1009.5
20260507013136 11 3 0.0 0.0 0.00 0.51 0.00 92 1009.5
20260507004137 12 12 0.0 0.0 0.00 0.51 0.00 92 1009.5
20260507002102 12 12 0.0 0.0 0.00 0.51 0.00 91 1009.5
20260507000146 12 12 0.0 0.0 0.00 0.51 0.00 91 1009.5
20260506235137 12 22 0.0 0.0 0.00 0.51 0.00 91 1009.4
20260506234110 12 22 0.0 1.6 0.00 0.51 0.00 91 1009.5
20260506233108 12 22 0.0 0.0 0.00 0.51 0.00 91 1009.5
20260506232145 12 22 0.0 0.0 0.00 0.51 0.00 91 1009.5
20260506230105 13 22 0.0 0.0 0.00 0.51 0.00 91 1009.3
20260506225102 13 22 0.0 0.0 0.00 0.51 0.00 91 1009.4
20260506224104 13 22 0.0 0.0 0.00 0.51 0.00 91 1009.5
20260506223109 13 22 0.0 0.0 0.00 0.51 0.00 90 1009.5
20260506222147 13 22 0.0 0.0 0.00 0.51 0.00 90 1009.5
20260506221102 13 22 0.0 0.0 0.00 0.51 0.00 90 1009.6
20260506220122 13 22 0.0 0.0 0.00 0.51 0.00 90 1009.5
20260506215124 13 22 0.0 0.0 0.00 0.51 0.51 90 1009.4
20260506214137 14 22 0.0 0.0 0.00 0.51 0.51 90 1009.4
20260506213110 13 22 0.0 0.0 0.00 0.51 0.51 89 1009.5
20260506212133 14 22 0.0 0.0 0.00 0.51 0.51 89 1009.5
20260506211119 14 22 0.0 0.0 0.00 0.51 0.51 88 1009.4
20260506210104 15 22 0.0 0.0 0.00 0.51 0.51 88 1009.3
20260506205123 15 22 0.0 0.0 0.00 0.51 0.51 88 1009.3
20260506204102 15 22 0.0 0.0 0.00 0.51 0.51 88 1009.2
20260506203142 15 22 0.0 0.0 0.00 0.51 0.51 88 1009.2